• In Deutschland
  • Länderverzeichnis
  • Für 7 Tage
  • Wassertemperatur
  • Satellitenkarten
  • Wetterkarte
  • Widgets
  • user-avatar
    Anmelden

    Stündliche Wetter Hobart

    Heute, 23 Juni, Freitag

    Zeit Temperatur Niederschläge Wind Luftdruck Luftfeuchtigkeit
    00:00 +6°C° 0 mm 5 m/S 747 mmHg 87%
    01:00 +6°C° 0 mm 5 m/S 747 mmHg 89%
    02:00 +6°C° 0 mm 5 m/S 746 mmHg 90%
    03:00 +6°C° 0 mm 5 m/S 745 mmHg 90%
    04:00 +6°C° 0 mm 4 m/S 744 mmHg 93%
    05:00 +6°C° 0 mm 5 m/S 743 mmHg 92%
    06:00 +7°C° 0 mm 5 m/S 743 mmHg 92%
    07:00 +7°C° 0 mm 5 m/S 743 mmHg 91%
    08:00 +8°C° 0 mm 6 m/S 742 mmHg 84%
    09:00 +9°C° 0 mm 7 m/S 741 mmHg 77%
    10:00 +11°C° 0 mm 7 m/S 740 mmHg 68%
    11:00 +11°C° 0,1 mm 8 m/S 739 mmHg 68%
    12:00 +11°C° 0,1 mm 8 m/S 739 mmHg 67%
    13:00 +11°C° 0,1 mm 9 m/S 738 mmHg 67%
    14:00 +10°C° 0,5 mm 9 m/S 738 mmHg 72%
    15:00 +8°C° 0,5 mm 9 m/S 738 mmHg 78%
    16:00 +8°C° 0 mm 7 m/S 737 mmHg 87%
    17:00 +6°C° 0,3 mm 7 m/S 737 mmHg 85%
    18:00 +4°C° 0,3 mm 8 m/S 738 mmHg 83%
    19:00 +2°C° 0,3 mm 9 m/S 739 mmHg 80%
    20:00 +2°C° 0 mm 9 m/S 739 mmHg 80%
    21:00 +1°C° 0 mm 9 m/S 740 mmHg 80%
    22:00 0°C° 0 mm 8 m/S 740 mmHg 80%
    23:00 0°C° 0,1 mm 8 m/S 741 mmHg 79%

    Morgen, 24 Juni, Samstag

    Zeit Temperatur Niederschläge Wind Luftdruck Luftfeuchtigkeit
    00:00 0°C° 0,1 mm 8 m/S 741 mmHg 78%
    01:00 -1°C° 0,1 mm 8 m/S 741 mmHg 78%
    02:00 -1°C° 0,1 mm 7 m/S 742 mmHg 79%
    03:00 -1°C° 0,1 mm 7 m/S 742 mmHg 80%
    04:00 -1°C° 0,1 mm 7 m/S 742 mmHg 81%
    05:00 0°C° 0,1 mm 7 m/S 743 mmHg 81%
    06:00 0°C° 0,1 mm 7 m/S 743 mmHg 81%
    07:00 +2°C° 0,1 mm 7 m/S 743 mmHg 81%
    08:00 +3°C° 0 mm 7 m/S 744 mmHg 76%
    09:00 +3°C° 0 mm 7 m/S 744 mmHg 72%
    10:00 +4°C° 0 mm 8 m/S 744 mmHg 68%
    11:00 +5°C° 0,1 mm 7 m/S 744 mmHg 67%
    12:00 +5°C° 0,1 mm 7 m/S 744 mmHg 67%
    13:00 +5°C° 0,1 mm 7 m/S 744 mmHg 66%
    14:00 +5°C° 0 mm 7 m/S 744 mmHg 68%
    15:00 +5°C° 0 mm 6 m/S 744 mmHg 70%
    16:00 +4°C° 0 mm 6 m/S 744 mmHg 72%
    17:00 +4°C° 0 mm 6 m/S 744 mmHg 76%
    18:00 +3°C° 0 mm 5 m/S 744 mmHg 80%
    19:00 +3°C° 0 mm 5 m/S 744 mmHg 84%
    20:00 +3°C° 0 mm 5 m/S 744 mmHg 83%
    21:00 +5°C° 0 mm 5 m/S 744 mmHg 83%
    22:00 +5°C° 0 mm 5 m/S 744 mmHg 82%
    23:00 +5°C° 0,1 mm 5 m/S 743 mmHg 83%

    übermorgen, 25 Juni, Sonntag

    Zeit Temperatur Niederschläge Wind Luftdruck Luftfeuchtigkeit
    00:00 +4°C° 0,1 mm 6 m/S 743 mmHg 83%
    01:00 +4°C° 0,1 mm 6 m/S 742 mmHg 84%
    02:00 +5°C° 0,1 mm 6 m/S 741 mmHg 85%
    03:00 +5°C° 0,1 mm 6 m/S 741 mmHg 86%
    04:00 +5°C° 0,1 mm 6 m/S 740 mmHg 87%
    05:00 +5°C° 0 mm 7 m/S 740 mmHg 87%
    06:00 +5°C° 0 mm 7 m/S 739 mmHg 88%
    07:00 +5°C° 0 mm 7 m/S 739 mmHg 88%
    08:00 +6°C° 0,1 mm 8 m/S 738 mmHg 83%
    09:00 +7°C° 0,1 mm 9 m/S 738 mmHg 78%
    10:00 +8°C° 0,1 mm 10 m/S 738 mmHg 74%
    11:00 +7°C° 0,6 mm 9 m/S 737 mmHg 78%
    12:00 +7°C° 0,6 mm 9 m/S 737 mmHg 82%
    13:00 +6°C° 0,6 mm 8 m/S 737 mmHg 87%
    14:00 +6°C° 0,1 mm 9 m/S 737 mmHg 84%
    15:00 +5°C° 0,1 mm 10 m/S 737 mmHg 82%
    16:00 +5°C° 0,1 mm 10 m/S 738 mmHg 79%
    17:00 +3°C° 0,1 mm 10 m/S 739 mmHg 80%
    18:00 +3°C° 0,1 mm 10 m/S 740 mmHg 81%
    19:00 +2°C° 0,1 mm 9 m/S 740 mmHg 81%
    20:00 +2°C° 0 mm 9 m/S 741 mmHg 80%
    21:00 +2°C° 0 mm 9 m/S 742 mmHg 79%
    22:00 +2°C° 0 mm 9 m/S 743 mmHg 78%
    23:00 +2°C° 0 mm 8 m/S 743 mmHg 78%

    26 Juni, Montag

    Zeit Temperatur Niederschläge Wind Luftdruck Luftfeuchtigkeit
    00:00 +2°C° 0 mm 8 m/S 744 mmHg 78%
    01:00 +2°C° 0 mm 8 m/S 744 mmHg 78%
    02:00 +3°C° 0 mm 7 m/S 745 mmHg 78%
    03:00 +3°C° 0 mm 7 m/S 746 mmHg 78%
    04:00 +3°C° 0 mm 7 m/S 746 mmHg 78%
    05:00 +3°C° 0,1 mm 6 m/S 747 mmHg 79%
    06:00 +3°C° 0,1 mm 6 m/S 748 mmHg 80%
    07:00 +3°C° 0,1 mm 5 m/S 749 mmHg 81%
    08:00 +5°C° 0,1 mm 5 m/S 749 mmHg 80%
    09:00 +5°C° 0,1 mm 5 m/S 750 mmHg 79%
    10:00 +6°C° 0,1 mm 5 m/S 751 mmHg 77%
    11:00 +5°C° 0,1 mm 6 m/S 751 mmHg 74%
    12:00 +7°C° 0,1 mm 6 m/S 751 mmHg 71%
    13:00 +8°C° 0,1 mm 6 m/S 751 mmHg 69%
    14:00 +7°C° 0 mm 6 m/S 751 mmHg 70%
    15:00 +7°C° 0 mm 6 m/S 752 mmHg 72%
    16:00 +7°C° 0 mm 5 m/S 752 mmHg 74%
    17:00 +6°C° 0 mm 5 m/S 752 mmHg 78%
    18:00 +5°C° 0 mm 5 m/S 753 mmHg 83%
    19:00 +5°C° 0 mm 5 m/S 753 mmHg 88%
    20:00 +4°C° 0 mm 4 m/S 753 mmHg 90%
    21:00 +4°C° 0 mm 4 m/S 754 mmHg 91%
    22:00 +4°C° 0 mm 4 m/S 754 mmHg 93%
    23:00 +3°C° 0 mm 4 m/S 754 mmHg 94%

    27 Juni, Dienstag

    Zeit Temperatur Niederschläge Wind Luftdruck Luftfeuchtigkeit
    00:00 +3°C° 0 mm 4 m/S 754 mmHg 95%
    01:00 +3°C° 0 mm 4 m/S 754 mmHg 96%
    02:00 +3°C° 0 mm 4 m/S 754 mmHg 95%
    03:00 +3°C° 0 mm 4 m/S 754 mmHg 95%
    04:00 +3°C° 0 mm 4 m/S 754 mmHg 95%
    05:00 +3°C° 0 mm 3 m/S 754 mmHg 95%
    06:00 +2°C° 0 mm 3 m/S 754 mmHg 95%
    07:00 +2°C° 0 mm 3 m/S 754 mmHg 95%
    08:00 +4°C° 0 mm 3 m/S 754 mmHg 90%
    09:00 +5°C° 0 mm 3 m/S 755 mmHg 85%
    10:00 +7°C° 0 mm 2 m/S 755 mmHg 79%
    11:00 +8°C° 0 mm 2 m/S 754 mmHg 74%
    12:00 +9°C° 0 mm 2 m/S 754 mmHg 69%
    13:00 +10°C° 0 mm 2 m/S 754 mmHg 64%
    14:00 +10°C° 0 mm 2 m/S 754 mmHg 67%
    15:00 +9°C° 0 mm 2 m/S 754 mmHg 71%
    16:00 +9°C° 0 mm 1 m/S 753 mmHg 75%
    17:00 +8°C° 0 mm 1 m/S 754 mmHg 77%
    18:00 +6°C° 0 mm 2 m/S 754 mmHg 80%
    19:00 +6°C° 0 mm 2 m/S 754 mmHg 82%
    20:00 +5°C° 0 mm 2 m/S 754 mmHg 85%
    21:00 +4°C° 0 mm 2 m/S 754 mmHg 88%
    22:00 +3°C° 0 mm 3 m/S 754 mmHg 90%
    23:00 +3°C° 0 mm 3 m/S 754 mmHg 90%

    28 Juni, Mittwoch

    Zeit Temperatur Niederschläge Wind Luftdruck Luftfeuchtigkeit
    00:00 +2°C° 0 mm 3 m/S 754 mmHg 91%
    01:00 +2°C° 0 mm 3 m/S 754 mmHg 91%
    02:00 +2°C° 0 mm 3 m/S 754 mmHg 91%
    03:00 +2°C° 0 mm 3 m/S 754 mmHg 90%
    04:00 +3°C° 0 mm 3 m/S 754 mmHg 90%
    05:00 +3°C° 0 mm 3 m/S 754 mmHg 89%
    06:00 +3°C° 0 mm 3 m/S 754 mmHg 89%
    07:00 +5°C° 0 mm 2 m/S 755 mmHg 89%
    08:00 +5°C° 0 mm 3 m/S 755 mmHg 85%
    09:00 +7°C° 0 mm 3 m/S 755 mmHg 82%
    10:00 +8°C° 0 mm 3 m/S 755 mmHg 79%
    11:00 +9°C° 0 mm 3 m/S 754 mmHg 74%
    12:00 +10°C° 0 mm 3 m/S 754 mmHg 69%
    13:00 +11°C° 0 mm 4 m/S 754 mmHg 65%
    14:00 +11°C° 0 mm 3 m/S 754 mmHg 69%
    15:00 +10°C° 0 mm 3 m/S 754 mmHg 74%
    16:00 +9°C° 0 mm 2 m/S 753 mmHg 79%
    17:00 +8°C° 0 mm 2 m/S 754 mmHg 84%
    18:00 +7°C° 0 mm 2 m/S 754 mmHg 89%
    19:00 +5°C° 0 mm 2 m/S 754 mmHg 93%
    20:00 +5°C° 0 mm 2 m/S 754 mmHg 94%
    21:00 +5°C° 0 mm 2 m/S 754 mmHg 94%
    22:00 +5°C° 0 mm 2 m/S 754 mmHg 95%
    23:00 +5°C° 0 mm 2 m/S 754 mmHg 95%
    Mehr zeigen